Weather in Losevo

Russia / Saint-Petersburg and Leningrad Oblast     60°40′57″N   29°59′54″E
temp.,
°C
wind,
m/s
gust,
m/s
humid.,
%
clouds,
%
prec.,
mm/h
press.,
hPa
HPBL,
m
23 april, fri
fri2300:00+5sse1180100 0.2 100529
03:00+3nw2297100 5.0 1004447
06:00+3ene0198100 0.0 1004182
09:00+6ssw3583100 0.0 1005629
12:00+8ssw466295 0.5 10051632
15:00+7ssw576548 0.9 10061345
18:00+6s466777 0.6 10051057
21:00+3s238359 1.2 100659
24 april, sat
sat2400:00+3s2691100 0.1 1006537
03:00+2ssw269233 0.1 1006353
06:00+2s2492100 0.1 1006341
09:00+4ssw127786 0.1 1006724
12:00+6ssw126683 0.5 1006870
15:00+5wsw2271100 1.8 1006845
18:00+5sw026884 1.4 1006811
21:00+3ne118486 1.8 100614
25 april, sun
sun2500:00+1sw11897 0.0 100613
03:00−1wsw119495 0.0 100630
06:000w129772 0.0 1005104
09:00+2w2284100 0.0 1006625
12:00+3w2279100 0.0 1006739
15:00+4w2271100 0.0 1007925
18:00+4wsw1377100 0.0 1007303
21:00+2w2489100 0.0 1007162
26 april, mon
mon2600:00+1w259382 0.0 1007154
03:00+1wsw2694100 0.0 1006198
06:00+1w2696100 0.0 1006302
09:00+2w3696100 0.5 1006360
12:00+2wsw4996100 1.0 1005458
15:00+2wsw41097100 2.9 1005534
18:00+1sw41197100 2.0 1005466
21:00+1sw3698100 3.8 1004566
27 april, tue
tue2700:00+1sw2598100 0.6 1004229
03:00+1sw2399100 1.6 1003155
06:00+1wsw1399100 0.7 1003256
09:00+3nw1599100 0.8 1003481
12:00+4nnw2495100 0.1 1004520
15:00+6nw3474100 0.4 1004974
18:00+5nw3682100 0.6 1005406
21:00+2wnw239425 0.8 100644